Location: Sobotiste
(48.7170°N, 17.4000°E)
Time: 02:32:40
(UTC+01:00)

Envisat - Pass Details

Date: 21 August 2018
Orbit: 764 x 766 km, 98.2° (Epoch: 17 November)

Event Time Altitude Azimuth Distance (km) Brightness Sun altitude
Rises 20:40:23 0° 193° (SSW) 3,217 6.1 -7.7°
Reaches altitude 10° 20:42:55 10° 203° (SSW) 2,296 5.4 -8.1°
Maximum altitude 20:47:23 31° 265° (W) 1,318 4.9 -8.8°
Drops below altitude 10° 20:51:54 10° 328° (NNW) 2,313 6.6 -9.4°
Sets 20:54:29 0° 338° (NNW) 3,244 7.2 -9.8°
